Location: Bosdarros
(43.2167°N, 0.3667°W)
Time: 02:58:14
(UTC+00:00)

CZ-2C R/B - Pass Details

Date: 22 April 2021
Orbit: 784 x 871 km, 98.2° (Epoch: 15 May)

Event Time Altitude Azimuth Distance (km) Brightness Sun altitude
Rises 19:14:43 0° 10° (N) 3,292 5.9 -4.6°
Reaches altitude 10° 19:17:02 10° 9° (N) 2,364 5.2 -5.0°
Maximum altitude 19:22:14 71° 286° (WNW) 846 3.0 -5.9°
Drops below altitude 10° 19:27:29 10° 203° (SSW) 2,391 5.1 -6.7°
Sets 19:29:50 0° 202° (SSW) 3,331 5.8 -7.1°
